Starlink 31463

operational
NORAD ID: 59296 Int'l Des: 2024-056 Owner: SPXS Country: US Constellation: starlink
LEOCIRCULAR

About Starlink 31463

Description loading...

Live Position

Loading 3D Globe...

Upcoming Passes

Altitude History

Altitude vs Time

uPlot chart will show altitude changes over time

Two-Line Element Set

1 59296U 24056A 25259.00070115 .00002207 00000-0 89677-4 0 9997
2 59296 43.0023 133.3056 0001078 281.3464 78.7266 15.27593785 84482
Epoch: Sep 16, 2025 • Age: 18 hours

Current Status

Altitude 484.2 km
Velocity 7.63 km/s
Sub-Earth Point 30.07°N, 7.18°E
Launch Date Mar 24, 2024
Age 1.4 years
Type internet

Technical Details

Classification Payload
Mass 730.00 kg
Dry Mass 700.00 kg
Total Mass 730.00 kg
Length 0.30 m
Diameter 4.10 m
Span 29.00 m
Shape Box + pan
Manufacturer SPXS
Bus Type Starlink V2M
Phase Status In Orbit
Owner/State SPXS/US

Large Constellations

Loading constellations...